This is the latest recevied weather packets stored in our database for station/object K0APR. If no packets are shown the sender has not sent any weather packets the latest 10 day(s).
| Time | Temp. | Humidity | Pressure | Rain* | Wind** | Luminosity | Snow |
|---|---|---|---|---|---|---|---|
| 1777862048 | 16.11° C | 34% | 1004.9 hPa | 0 mm | - | 0 W/m² | - |
| 1777861743 | 16.11° C | 34% | 1004.9 hPa | 0 mm | - | 0 W/m² | - |
| 1777861440 | 15.56° C | 36% | 1004.6 hPa | 0 mm | - | 0 W/m² | - |
| 1777861136 | 15.56° C | 36% | 1004.9 hPa | 0 mm | - | 0 W/m² | - |
| 1777860834 | 16.11° C | 36% | 1004.6 hPa | 0 mm | - | 0 W/m² | - |
| 1777860531 | 16.11° C | 36% | 1004.9 hPa | 0 mm | - | 0 W/m² | - |
| 1777860227 | 16.67° C | 37% | 1005.2 hPa | 0 mm | - | 0 W/m² | - |
| 1777859924 | 16.67° C | 36% | 1004.9 hPa | 0 mm | - | 0 W/m² | - |
| 1777859620 | 17.22° C | 36% | 1004.6 hPa | 0 mm | - | 0 W/m² | - |
| 1777859316 | 17.22° C | 35% | 1004.9 hPa | 0 mm | - | 0 W/m² | - |
| 1777859012 | 17.78° C | 34% | 1004.9 hPa | 0 mm | - | 0 W/m² | - |
| 1777858710 | 17.78° C | 34% | 1004.9 hPa | 0 mm | - | 0 W/m² | - |
| 1777858408 | 18.33° C | 34% | 1005.2 hPa | 0 mm | - | 0 W/m² | - |
| 1777858104 | 18.89° C | 33% | 1005.2 hPa | 0 mm | - | 2 W/m² | - |
| 1777857802 | 18.89° C | 31% | 1004.9 hPa | 0 mm | - | 3 W/m² | - |
| 1777857499 | 19.44° C | 30% | 1005.2 hPa | 0 mm | - | 6 W/m² | - |
| 1777857196 | 19.44° C | 30% | 1004.9 hPa | 0 mm | - | 9 W/m² | - |
| 1777856891 | 20° C | 29% | 1005.2 hPa | 0 mm | - | 12 W/m² | - |
| 1777856587 | 20° C | 28% | 1004.9 hPa | 0 mm | - | 15 W/m² | - |
| 1777856284 | 20° C | 29% | 1004.9 hPa | 0 mm | - | 18 W/m² | - |
| 1777855981 | 20.56° C | 28% | 1004.9 hPa | 0 mm | - | 20 W/m² | - |
| 1777855679 | 20.56° C | 27% | 1005.2 hPa | 0 mm | - | 22 W/m² | - |
| 1777855376 | 21.11° C | 27% | 1005.2 hPa | 0 mm | - | 26 W/m² | - |
| 1777855072 | 21.11° C | 27% | 1005.2 hPa | 0 mm | - | 32 W/m² | - |
| 1777854769 | 21.67° C | 27% | 1005.2 hPa | 0 mm | - | 41 W/m² | - |
* Rain latest hour (hover to see other rain measurements)
** Current wind speed in m/s (hover to see current wind gust speed)